SILU-1 (SILKROAD 1)

Last updated on April 11, 2019, 3:13 a.m. UTC

1 42903U 17021F   19100.23204088  .02436429  89480-5  50117-3 0  9998
2 42903  42.7609 296.2424 0011156 293.9683  66.9737 16.29954320 97039

Satellite is not in orbit.